<?xml version="1.0"?>
<gpx xmlns="http://www.topografix.com/GPX/1/1" xmlns:xsi="http://www.w3.org/2001/XMLSchema-instance" version="1.1" creator="GPX RubyGem 1.0.0 -- http://dougfales.github.io/gpx/" xsi:schemaLocation="http://www.topografix.com/GPX/1/1 http://www.topografix.com/GPX/1/1/gpx.xsd">
  <metadata>
    <name/>
    <time>2026-05-07T18:29:24+00:00</time>
    <bound minlat="90.0" minlon="180.0" maxlat="-90.0" maxlon="-180.0"/>
  </metadata>
  <trk>
    <name/>
    <trkseg>
      <trkpt lat="45.436978" lon="11.671502">
        <time>1970-01-01T00:00:00+00:00</time>
        <ele>22.0</ele>
      </trkpt>
      <trkpt lat="45.437128" lon="11.671774">
        <time>1970-01-01T00:00:00+00:00</time>
        <ele>23.0</ele>
      </trkpt>
      <trkpt lat="45.43757" lon="11.67258">
        <time>1970-01-01T00:00:00+00:00</time>
        <ele>23.0</ele>
      </trkpt>
      <trkpt lat="45.437173" lon="11.673031">
        <time>1970-01-01T00:00:00+00:00</time>
        <ele>24.0</ele>
      </trkpt>
      <trkpt lat="45.436967" lon="11.673249">
        <time>1970-01-01T00:00:00+00:00</time>
        <ele>23.0</ele>
      </trkpt>
      <trkpt lat="45.435651" lon="11.674681">
        <time>1970-01-01T00:00:00+00:00</time>
        <ele>22.0</ele>
      </trkpt>
      <trkpt lat="45.435679" lon="11.674742">
        <time>1970-01-01T00:00:00+00:00</time>
        <ele>22.0</ele>
      </trkpt>
      <trkpt lat="45.43571" lon="11.674911">
        <time>1970-01-01T00:00:00+00:00</time>
        <ele>21.0</ele>
      </trkpt>
      <trkpt lat="45.435752" lon="11.674994">
        <time>1970-01-01T00:00:00+00:00</time>
        <ele>21.0</ele>
      </trkpt>
      <trkpt lat="45.435761" lon="11.675093">
        <time>1970-01-01T00:00:00+00:00</time>
        <ele>20.0</ele>
      </trkpt>
      <trkpt lat="45.435917" lon="11.67544">
        <time>1970-01-01T00:00:00+00:00</time>
        <ele>21.0</ele>
      </trkpt>
      <trkpt lat="45.436296" lon="11.67641">
        <time>1970-01-01T00:00:00+00:00</time>
        <ele>21.0</ele>
      </trkpt>
      <trkpt lat="45.436377" lon="11.676426">
        <time>1970-01-01T00:00:00+00:00</time>
        <ele>20.0</ele>
      </trkpt>
      <trkpt lat="45.436435" lon="11.676405">
        <time>1970-01-01T00:00:00+00:00</time>
        <ele>21.0</ele>
      </trkpt>
      <trkpt lat="45.437353" lon="11.67566">
        <time>1970-01-01T00:00:00+00:00</time>
        <ele>20.0</ele>
      </trkpt>
      <trkpt lat="45.43743" lon="11.675564">
        <time>1970-01-01T00:00:00+00:00</time>
        <ele>21.0</ele>
      </trkpt>
      <trkpt lat="45.437501" lon="11.675389">
        <time>1970-01-01T00:00:00+00:00</time>
        <ele>21.0</ele>
      </trkpt>
      <trkpt lat="45.437696" lon="11.674324">
        <time>1970-01-01T00:00:00+00:00</time>
        <ele>24.0</ele>
      </trkpt>
      <trkpt lat="45.437787" lon="11.674082">
        <time>1970-01-01T00:00:00+00:00</time>
        <ele>24.0</ele>
      </trkpt>
      <trkpt lat="45.437964" lon="11.673763">
        <time>1970-01-01T00:00:00+00:00</time>
        <ele>24.0</ele>
      </trkpt>
      <trkpt lat="45.438137" lon="11.673495">
        <time>1970-01-01T00:00:00+00:00</time>
        <ele>24.0</ele>
      </trkpt>
      <trkpt lat="45.438149" lon="11.673416">
        <time>1970-01-01T00:00:00+00:00</time>
        <ele>24.0</ele>
      </trkpt>
      <trkpt lat="45.438149" lon="11.673416">
        <time>1970-01-01T00:00:00+00:00</time>
        <ele>24.0</ele>
      </trkpt>
      <trkpt lat="45.438137" lon="11.673495">
        <time>1970-01-01T00:00:00+00:00</time>
        <ele>24.0</ele>
      </trkpt>
      <trkpt lat="45.437964" lon="11.673763">
        <time>1970-01-01T00:00:00+00:00</time>
        <ele>24.0</ele>
      </trkpt>
      <trkpt lat="45.437787" lon="11.674082">
        <time>1970-01-01T00:00:00+00:00</time>
        <ele>24.0</ele>
      </trkpt>
      <trkpt lat="45.437696" lon="11.674324">
        <time>1970-01-01T00:00:00+00:00</time>
        <ele>24.0</ele>
      </trkpt>
      <trkpt lat="45.437501" lon="11.675389">
        <time>1970-01-01T00:00:00+00:00</time>
        <ele>21.0</ele>
      </trkpt>
      <trkpt lat="45.43743" lon="11.675564">
        <time>1970-01-01T00:00:00+00:00</time>
        <ele>21.0</ele>
      </trkpt>
      <trkpt lat="45.437353" lon="11.67566">
        <time>1970-01-01T00:00:00+00:00</time>
        <ele>20.0</ele>
      </trkpt>
      <trkpt lat="45.436435" lon="11.676405">
        <time>1970-01-01T00:00:00+00:00</time>
        <ele>21.0</ele>
      </trkpt>
      <trkpt lat="45.436377" lon="11.676426">
        <time>1970-01-01T00:00:00+00:00</time>
        <ele>20.0</ele>
      </trkpt>
      <trkpt lat="45.436296" lon="11.67641">
        <time>1970-01-01T00:00:00+00:00</time>
        <ele>21.0</ele>
      </trkpt>
      <trkpt lat="45.435917" lon="11.67544">
        <time>1970-01-01T00:00:00+00:00</time>
        <ele>21.0</ele>
      </trkpt>
      <trkpt lat="45.435761" lon="11.675093">
        <time>1970-01-01T00:00:00+00:00</time>
        <ele>20.0</ele>
      </trkpt>
      <trkpt lat="45.435752" lon="11.674994">
        <time>1970-01-01T00:00:00+00:00</time>
        <ele>21.0</ele>
      </trkpt>
      <trkpt lat="45.43571" lon="11.674911">
        <time>1970-01-01T00:00:00+00:00</time>
        <ele>21.0</ele>
      </trkpt>
      <trkpt lat="45.435679" lon="11.674742">
        <time>1970-01-01T00:00:00+00:00</time>
        <ele>22.0</ele>
      </trkpt>
      <trkpt lat="45.435651" lon="11.674681">
        <time>1970-01-01T00:00:00+00:00</time>
        <ele>22.0</ele>
      </trkpt>
      <trkpt lat="45.436967" lon="11.673249">
        <time>1970-01-01T00:00:00+00:00</time>
        <ele>23.0</ele>
      </trkpt>
      <trkpt lat="45.437173" lon="11.673031">
        <time>1970-01-01T00:00:00+00:00</time>
        <ele>24.0</ele>
      </trkpt>
      <trkpt lat="45.43757" lon="11.67258">
        <time>1970-01-01T00:00:00+00:00</time>
        <ele>23.0</ele>
      </trkpt>
      <trkpt lat="45.437128" lon="11.671774">
        <time>1970-01-01T00:00:00+00:00</time>
        <ele>23.0</ele>
      </trkpt>
      <trkpt lat="45.436978" lon="11.671502">
        <time>1970-01-01T00:00:00+00:00</time>
        <ele>22.0</ele>
      </trkpt>
    </trkseg>
  </trk>
</gpx>
